Location: Krakow
(50.0212°N, 19.9423°E)
Time: 07:37:53
(UTC+02:00)

UKube-1 - Visible Passes

Search period start: 16 April 2024 00:00
Search period end: 26 April 2024 00:00
Orbit: 589 x 591 km, 98.3° (Epoch: 15 April)

Date Brightness Start Highest point End Pass type
(mag) Time Alt. Az. Time Alt. Az. Time Alt. Az.
16 Apr ? 01:21:19 10° NNE 01:23:59 33° NE 01:23:59 33° NE visible
16 Apr ? 02:57:19 10° N 03:00:32 22° WNW 03:00:32 22° WNW visible
17 Apr ? 01:29:17 10° NNE 01:32:12 39° NE 01:32:12 39° NE visible
17 Apr ? 03:05:31 10° NNW 03:08:31 19° WNW 03:08:44 19° WNW visible
18 Apr ? 01:37:14 10° NNE 01:40:23 47° NE 01:40:23 47° NE visible
18 Apr ? 03:13:45 10° NNW 03:16:26 17° WNW 03:16:55 16° WNW visible
19 Apr ? 01:45:12 10° NNE 01:48:32 55° NNE 01:48:32 55° NNE visible
19 Apr ? 03:22:01 10° NNW 03:24:18 15° WNW 03:25:05 14° WNW visible
20 Apr ? 00:20:01 10° ENE 00:20:08 10° ENE 00:20:08 10° ENE visible
20 Apr ? 01:53:09 10° NNE 01:56:40 62° N 01:56:40 62° N visible
20 Apr ? 03:30:20 10° NNW 03:32:09 13° NW 03:33:13 12° WNW visible
21 Apr ? 00:27:15 10° ENE 00:28:14 12° ENE 00:28:14 12° ENE visible
21 Apr ? 02:01:05 10° N 02:04:47 64° NNW 02:04:47 64° NNW visible
21 Apr ? 03:38:54 10° NW 03:39:58 11° NW 03:41:03 10° WNW visible
22 Apr ? 00:34:44 10° NE 00:36:20 15° ENE 00:36:20 15° ENE visible
22 Apr ? 02:09:01 10° N 02:12:52 59° NW 02:12:52 59° NW visible
23 Apr ? 00:42:19 10° NE 00:44:24 17° ENE 00:44:24 17° ENE visible
23 Apr ? 02:16:57 10° N 02:20:56 51° WNW 02:20:56 51° WNW visible
24 Apr ? 00:49:56 10° NE 00:52:26 21° ENE 00:52:26 21° ENE visible
24 Apr ? 02:24:53 10° N 02:28:51 43° WNW 02:28:58 43° WNW visible
25 Apr ? 00:57:36 10° NE 01:00:27 24° E 01:00:27 24° E visible
25 Apr ? 02:32:48 10° N 02:36:40 37° WNW 02:36:59 36° WNW visible
